Lexington Weather

Lexington, Massachusetts, USA

56°F
10/22/2020 7:44pm 
  • Lexington Conditions: Mostly cloudy
  • Temperature: 55.8°F / 13.2°CColder 0.3°F than last hour.
  • Dew Point: 54.3°FDecreased 0.2°Fsince last hour.
  • Relative Humidity: 95%Increased 1.0% since last hour.
  • Wind: Wind from NNE NNE 1 mph, 10-min avg: Calm, gust: 2 mph
  • Barometer: 30.22 in Steady
  • Visibility: 7 miles
  • Rain Today: 0.00 in
  •   

Regional Weather Roundup
for Boston / Norton, MA

        
000
ASUS41 KBOX 181004
RWRBOX

REGIONAL WEATHER ROUNDUP
NATIONAL WEATHER SERVICE BOSTON/NORTON MA
600 AM EDT SUN OCT 18 2020

NOTE:  "FAIR" INDICATES FEW OR NO CLOUDS BELOW 12,000 FEET WITH NO 
SIGNIFICANT WEATHER AND/OR OBSTRUCTIONS TO VISIBILITY.

MAZALL-181100-
EASTERN MASSACHUSETTS
  
CITY           SKY/WX    TMP DP  RH WIND       PRES   REMARKS
BOSTON         PTCLDY    42  36  79 NW3       30.52R                  
BEVERLY        CLEAR     34  32  92 CALM      30.51R                  
LAWRENCE       CLEAR     35  33  92 CALM      30.53R                  
BEDFORD        CLEAR     30  29  96 CALM      30.50R                  
BLUE HILL        N/A     49  27  42 S6        30.49R                  
NORWOOD        FOG       32  29  88 CALM      30.52R VSB 1/4          
MARSHFIELD     CLEAR     36  36 100 CALM      30.51R                  
PLYMOUTH       CLEAR     33  31  92 CALM      30.51R                  
TAUNTON        PTCLDY    30  27  88 CALM      30.51R                  
NEW BEDFORD    CLEAR     31  30  96 CALM      30.50R                  
$$

MAZALL-181100-
CAPE COD AND THE ISLANDS
  
CITY           SKY/WX    TMP DP  RH WIND       PRES   REMARKS
FALMOUTH       CLEAR     32  32 100 CALM      30.51R                  
HYANNIS        CLEAR     33  31  92 CALM      30.50R                  
CHATHAM        CLEAR     39  36  89 CALM      30.52R                  
PROVINCETOWN   CLEAR     31  28  89 CALM      30.52R                  
NANTUCKET      CLEAR    N/A N/A N/A NE7       30.50R                  
MARTHAS VNYRD  CLEAR     29  27  92 CALM      30.50R                  
$$
 
MAZALL-181100-
CENTRAL AND WESTERN MASSACHUSETTS
  
CITY           SKY/WX    TMP DP  RH WIND       PRES   REMARKS
WORCESTER      CLEAR     43  27  53 S3        30.48R                  
FITCHBURG      CLEAR     32  31  96 CALM      30.51R                  
ORANGE         FOG       30  30 100 CALM      30.52R VSB 1/4          
SPRINGFIELD    CLEAR     29  28  97 CALM      30.49R                  
WESTFIELD      CLEAR     31  30  96 N3        30.50R                  
NORTH ADAMS    CLEAR     32  30  92 CALM      30.48S                  
PITTSFIELD     CLEAR     31  28  89 CALM      30.45S                  
$$
 
RIZALL-181100-
RHODE ISLAND
  
CITY           SKY/WX    TMP DP  RH WIND       PRES   REMARKS
PROVIDENCE     CLEAR     36  34  92 CALM      30.52R                  
NEWPORT        CLEAR     37  36  96 CALM      30.50R                  
BLOCK ISLAND   CLEAR     49  34  56 E7        30.50R                  
SMITHFIELD     CLEAR     36  33  89 CALM        N/A                   
WESTERLY       CLEAR     35  31  85 N3        30.50R                  
$$
 
CTZALL-181100-
CONNECTICUT
  
CITY           SKY/WX    TMP DP  RH WIND       PRES   REMARKS
BRADLEY INTL   PTCLDY    32  29  88 CALM      30.50R                  
HARTFORD       CLEAR     36  33  89 CALM      30.51R                  
BRIDGEPORT     CLEAR     42  37  82 NE7       30.48R                  
DANBURY        FOG       32  31  96 CALM      30.49S VSB 1/2          
GROTON         CLEAR     36  33  89 N6        30.49R WCI  31          
NEW HAVEN      CLEAR     39  34  82 N6        30.48R                  
CHESTER        NOT AVBL                                               
MERIDEN        CLEAR     34  33  96 CALM      30.50R                  
WILLIMANTIC    MOCLDY    30  29  96 CALM      30.51R                  
OXFORD         CLEAR     35  34  96 E6        30.47S WCI  30          
$$

MEZ002-015-021-024-NHZ003-005-008-011-012-014-VTZ005-008-181100-
NORTHERN NEW ENGLAND
  
CITY           SKY/WX    TMP DP  RH WIND       PRES   REMARKS
PORTLAND ME    PTCLDY    31  30  96 N5        30.51R WCI  26          
BANGOR ME      CLEAR     30  30 100 CALM      30.52R                  
CONCORD NH     FOG       29  28  96 CALM      30.51R VSB 1/4          
MANCHESTER NH  CLEAR     34  30  85 CALM      30.50R                  
NASHUA NH      CLEAR     29  29 100 CALM      30.52R                  
PORTSMOUTH NH  PTCLDY    33  31  93 W3        30.50R FOG              
JAFFREY NH     FOG       30  29  96 CALM      30.49  VSB 1            
KEENE NH       PTCLDY    28  27  96 CALM      30.52R                  
BURLINGTON VT  CLEAR     44  31  60 S8        30.43R                  
MT. WASHINGTON PTCLDY    25  16  68 W20         N/A  WCI  11          
$$

NYZ052-076-181100-
EASTERN NEW YORK
  
CITY           SKY/WX    TMP DP  RH WIND       PRES   REMARKS
ALBANY         PTCLDY    32  31  96 CALM      30.47R                  
NEW YORK CITY  CLEAR     51  43  74 NE3       30.46R                  
$$
 
ANZALL-181100-
MARINE OBSERVATIONS
  
STATION/POSITION TIME  TEMP    WIND        PRES    VSBY  WAVE
                       AIR SEA DIR/SP/G                  HT/PER
                 (UTC) (F)     (DEG/KT/KT) (MB)    (MI)  (FT/S)
BOSTON BUOY      0950   53 56  260/  4/  4 1032.4R         1/10
BUZZARDS BAY     0900          100/  8/ 11 1033.3R
NANTUCKET SOUND  0950      62   70/  8/ 12   N/A           0
MASS BAY-STELLWA 0904   54 58  220/  4/  6 1032.6R  1 7/8  1/ 8
ISLE OF SHOALS   0900   46     300/  5/  6 1032.3R
S OF BLOCK IS    0926      63                N/A           2/ 7
$$

......................KEY.........................
  SKY/WX - SKY CONDITION/PRESENT WEATHER
  TMP    - TEMPERATURE IN FAHRENHEIT
  DWPT   - DEWPOINT IN FAHRENHEIT
  RH     - RELATIVE HUMIDITY IN PERCENT
  WIND   - DIRECTION AND SPEED IN MPH
  PRES   - MEAN SEA LEVEL PRESSURE IN INCHES OF HG
  WCI    - WIND CHILL INDEX
  VSB    - VISIBILITY IN MILES
  HX     - HEAT INDEX
  TC     - TEMPERATURE IN CELSIUS
  VRB    - VARIABLE WIND DIRECTION
  N/A    - NOT AVAILABLE
  
      

Other recent Regional Weather Roundups

Thu Oct 22, 7:05pm

Thu Oct 22, 6:04pm

Thu Oct 22, 5:04pm

Thu Oct 22, 4:05pm

Thu Oct 22, 3:04pm

Thu Oct 22, 2:05pm

Thu Oct 22, 1:04pm

Thu Oct 22, 12:04pm

Thu Oct 22, 11:04am

Thu Oct 22, 10:05am

Thu Oct 22, 9:04am

Thu Oct 22, 8:05am

Thu Oct 22, 7:04am

Thu Oct 22, 6:04am

Thu Oct 22, 5:04am

Thu Oct 22, 4:04am

Thu Oct 22, 3:04am

Thu Oct 22, 2:04am

Thu Oct 22, 1:04am

Thu Oct 22, 12:04am

Wed Oct 21, 11:05pm

Wed Oct 21, 10:04pm

Wed Oct 21, 9:04pm

Wed Oct 21, 8:04pm

Wed Oct 21, 7:04pm

Wed Oct 21, 6:04pm

Wed Oct 21, 5:05pm

Wed Oct 21, 4:04pm

Wed Oct 21, 3:04pm

Wed Oct 21, 2:05pm

Wed Oct 21, 1:04pm

Wed Oct 21, 12:04pm

Wed Oct 21, 11:04am

Wed Oct 21, 10:04am

Wed Oct 21, 9:04am

Wed Oct 21, 8:04am

Wed Oct 21, 7:04am

Wed Oct 21, 6:04am

Wed Oct 21, 5:04am

Wed Oct 21, 4:04am

Wed Oct 21, 3:04am

Wed Oct 21, 2:04am

Wed Oct 21, 1:04am

Wed Oct 21, 12:04am

Tue Oct 20, 11:05pm

Tue Oct 20, 10:04pm

Tue Oct 20, 9:04pm

Tue Oct 20, 8:05pm

Tue Oct 20, 7:04pm

Tue Oct 20, 6:04pm

Tue Oct 20, 5:05pm

Tue Oct 20, 4:04pm

Tue Oct 20, 3:05pm

Tue Oct 20, 2:07pm

Tue Oct 20, 1:04pm

Tue Oct 20, 12:04pm

Tue Oct 20, 11:04am

Tue Oct 20, 10:05am

Tue Oct 20, 9:04am

Tue Oct 20, 8:04am

Tue Oct 20, 7:04am

Tue Oct 20, 6:04am

Tue Oct 20, 5:04am

Tue Oct 20, 4:04am

Tue Oct 20, 3:04am

Tue Oct 20, 2:04am

Tue Oct 20, 1:04am

Tue Oct 20, 12:04am

Mon Oct 19, 11:04pm

Mon Oct 19, 10:04pm

Mon Oct 19, 9:04pm

Mon Oct 19, 8:04pm

Mon Oct 19, 7:04pm

Mon Oct 19, 6:04pm

Mon Oct 19, 5:04pm

Mon Oct 19, 4:04pm

Mon Oct 19, 3:04pm

Mon Oct 19, 2:04pm

Mon Oct 19, 1:05pm

Mon Oct 19, 12:04pm

Mon Oct 19, 11:04am

Mon Oct 19, 10:04am

Mon Oct 19, 9:04am

Mon Oct 19, 8:04am

Mon Oct 19, 7:04am

Mon Oct 19, 6:04am

Mon Oct 19, 5:04am

Mon Oct 19, 4:04am

Mon Oct 19, 3:04am

Mon Oct 19, 2:04am

Mon Oct 19, 1:04am

Mon Oct 19, 12:05am

Sun Oct 18, 11:04pm

Sun Oct 18, 10:04pm

Sun Oct 18, 9:04pm

Sun Oct 18, 8:04pm

Sun Oct 18, 7:05pm

Sun Oct 18, 6:04pm

Sun Oct 18, 5:05pm

Sun Oct 18, 4:05pm

Sun Oct 18, 3:04pm

Sun Oct 18, 2:05pm

Sun Oct 18, 1:04pm

Sun Oct 18, 12:04pm

Sun Oct 18, 11:04am

Sun Oct 18, 10:04am

Sun Oct 18, 9:04am

Sun Oct 18, 8:04am

Sun Oct 18, 7:04am

Sun Oct 18, 5:04am

Sun Oct 18, 4:04am

Sun Oct 18, 3:04am

Sun Oct 18, 2:04am

Sun Oct 18, 1:04am

Sun Oct 18, 12:04am

Sat Oct 17, 11:05pm

Sat Oct 17, 10:04pm

Sat Oct 17, 9:04pm

Sat Oct 17, 8:04pm

Sat Oct 17, 7:04pm

Sat Oct 17, 6:04pm

Sat Oct 17, 5:05pm

Sat Oct 17, 4:04pm

Sat Oct 17, 3:04pm

Sat Oct 17, 2:05pm

Sat Oct 17, 1:05pm

Sat Oct 17, 12:04pm

Sat Oct 17, 11:05am

Sat Oct 17, 10:04am

Sat Oct 17, 9:04am

Sat Oct 17, 8:04am

Sat Oct 17, 7:04am

Sat Oct 17, 6:04am

Sat Oct 17, 5:04am

Sat Oct 17, 4:04am

Sat Oct 17, 3:04am

Sat Oct 17, 2:04am

Sat Oct 17, 1:05am

Sat Oct 17, 12:04am

Fri Oct 16, 11:05pm

Fri Oct 16, 10:04pm

Fri Oct 16, 9:05pm

Fri Oct 16, 8:04pm

Fri Oct 16, 7:05pm

Fri Oct 16, 6:04pm

Fri Oct 16, 5:04pm

Fri Oct 16, 4:05pm

Fri Oct 16, 3:04pm

Fri Oct 16, 2:04pm

Fri Oct 16, 1:04pm

Fri Oct 16, 12:04pm

Fri Oct 16, 11:05am

Fri Oct 16, 10:04am

Fri Oct 16, 9:04am

Fri Oct 16, 8:04am

Fri Oct 16, 7:04am

Fri Oct 16, 6:04am

Fri Oct 16, 5:04am

Fri Oct 16, 4:04am

Fri Oct 16, 3:04am

Fri Oct 16, 2:04am

Fri Oct 16, 1:04am

Fri Oct 16, 12:04am

Thu Oct 15, 11:04pm

Thu Oct 15, 10:04pm

Thu Oct 15, 9:05pm

Thu Oct 15, 8:04pm

Meta data:

ID: dc3af81d-5a6c-4b55-b25e-d2871aca956f
Link: https://api.weather.gov/products/dc3af81d-5a6c-4b55-b25e-d2871aca956f